This demonstration page uses our WeatherBlox Daily Observations layout. Learn more.

Left ArrowRight Arrow

41.55636, -103.73856

Hourly Observations for June 5, 2015

Temp ( °F °C ) Dew Point ( °F °C ) Humidity (%) Winds ( mph kmh ) Pressure ( in mb ) Visibility ( mi km ) Precip ( " mm )
12:51 am 00:51 Cloudy 64 18 61 16 88 88 E 7 11 29.94 1014 10 16.0934 0 0
12:53 am 00:53 Cloudy 64 17.8 60 15.6 87 87 E 9 15 30 1016 10 16.0934 0 0
1:53 am 01:53 Cloudy 63 17.2 60 15.6 90 90 E 12 19 29.98 1015 9 14.48406 0 0
2:53 am 02:53 Cloudy 63 17.2 60 15.6 90 90 E 13 20 29.98 1015 8 12.87472 0 0
3:53 am 03:53 Cloudy with Mist and Fog 62 16.7 61 16.1 96 96 ESE 12 19 30.01 1016 5 8.0467 0 0
4:53 am 04:53 Cloudy with Mist and Fog 63 17.2 62 16.7 97 97 ESE 13 20 30.01 1016 4 6.43736 0 0.0254
5:53 am 05:53 Cloudy with Mist and Fog 63 17.2 62 16.7 97 97 ESE 15 24 30.03 1017 3 4.82802 0 0
6:03 am 06:03 Cloudy with Mist and Fog 63 17 63 17 100 100 ESE 14 22 29.97 1015 2.5 4.02335 0 0
6:09 am 06:09 Cloudy with Mist and Fog 63 17.2 62 16.7 97 97 ESE 14 22 29.97 1015 3 4.82802 0 0
6:22 am 06:22 Cloudy with Light Rain 63 17 63 17 100 100 ESE 14 22 29.97 1015 1.75 2.816345 0 0
6:38 am 06:38 Cloudy with Light Rain 63 17 63 17 100 100 SE 12 19 29.97 1015 3 4.82802 0 0
6:45 am 06:45 Cloudy with Light Rain 64 17.8 62 16.7 93 93 ESE 12 19 29.97 1015 2.5 4.02335 0.01 0.254
6:53 am 06:53 Cloudy with Mist and Fog 64 17.8 62 16.7 93 93 ESE 13 20 30.02 1017 3 4.82802 0.01 0.254
7:05 am 07:05 Cloudy with Mist and Fog 64 17.8 63 17.2 96 96 ESE 13 20 29.97 1015 3 4.82802 0 0
7:53 am 07:53 Cloudy with Mist and Fog 64 17.8 61 16.1 90 90 SE 15 24 30.04 1017 6 9.65604 0 0
8:53 am 08:53 Cloudy 65 18.3 62 16.7 90 90 ESE 8 13 30.04 1017 7 11.26538 0 0
9:18 am 09:18 Cloudy 66 19 63 17 88 88 ESE 12 19 29.97 1015 10 16.0934 0 0
9:27 am 09:27 Cloudy 66 18.9 62 16.7 87 87 ESE 14 22 29.97 1015 10 16.0934 0 0
9:53 am 09:53 Cloudy 66 18.9 61 16.1 84 84 ESE 15 24 30.03 1017 10 16.0934 0 0
10:34 am 10:34 Cloudy 66 19 61 16 83 83 SE 14 22 29.97 1015 10 16.0934 0 0
10:53 am 10:53 Cloudy with Light Rain 65 18.3 62 16.7 90 90 SE 10 17 30.04 1017 4 6.43736 0 0.0254
11:14 am 11:14 Cloudy 68 20 63 17 83 83 ESE 9 15 29.94 1014 10 16.0934 0 0
11:53 am 11:53 Partly Cloudy 72 22.2 61 16.1 68 68 SE 9 15 30 1016 10 16.0934 0 0.0254
12:53 pm 12:53 Mostly Sunny 72 22.2 58 14.4 61 61 S 9 15 30.01 1016 10 16.0934 0 0
1:53 pm 13:53 Sunny 72 22.2 59 15 64 64 SE 8 13 30 1016 10 16.0934 0 0
2:53 pm 14:53 Mostly Sunny 73 22.8 58 14.4 59 59 S 12 19 29.96 1015 10 16.0934 0 0
3:53 pm 15:53 Sunny 76 24.4 58 14.4 54 54 SSE 14 22 29.91 1013 10 16.0934 0 0
4:53 pm 16:53 Sunny 78 25.6 58 14.4 50 50 SE 16 26 29.89 1012 10 16.0934 0 0
5:53 pm 17:53 Mostly Sunny 75 23.9 58 14.4 55 55 SE 15 24 29.87 1012 10 16.0934 0 0
6:53 pm 18:53 Mostly Sunny 74 23.3 59 15 60 60 SE 21 33 29.9 1012 10 16.0934 0 0
7:53 pm 19:53 Mostly Cloudy 72 22.2 61 16.1 68 68 ESE 17 28 29.89 1012 10 16.0934 0 0
8:53 pm 20:53 Mostly Clear 69 20.6 61 16.1 76 76 ESE 15 24 29.88 1012 10 16.0934 0 0
9:53 pm 21:53 Mostly Cloudy 67 19.4 62 16.7 84 84 SE 18 30 29.92 1013 10 16.0934 0 0.0254
10:01 pm 22:01 Mostly Cloudy 67 19.4 62 16.7 84 84 SE 18 30 29.85 1011 10 16.0934 0 0
10:53 pm 22:53 Mostly Cloudy 65 18.3 61 16.1 87 87 SE 16 26 29.92 1013 10 16.0934 0 0
11:06 pm 23:06 Mostly Cloudy 66 19 61 16 83 83 SE 16 26 29.85 1011 10 16.0934 0 0
11:48 pm 23:48 Mostly Cloudy 64 18 61 16 88 88 ESE 13 20 29.83 1010 10 16.0934 0 0
11:53 pm 23:53 Partly Cloudy 65 18.3 61 16.1 87 87 ESE 12 19 29.87 1012 10 16.0934 0 0

Powered by AerisWeather